Location: Gwatt
(46.7204°N, 7.6223°E)
Time: 16:49:35
(UTC+00:00)

ARIANE 5 R/B - Pass Details

Date: 18 September 2020
Orbit: 620 x 657 km, 98.2° (Epoch: 23 October)

Event Time Altitude Azimuth Distance (km) Brightness Sun altitude
Exits shadow 19:37:43 29° 50° (NE) 1,147 3.7 -21.1°
Drops below altitude 10° 19:40:54 10° 6° (N) 2,002 5.4 -21.6°
Sets 19:43:16 0° 356° (N) 2,911 6.5 -22.0°
